Regional Weather Roundup
Issued by NWS

Home | Current Version | Previous Version | Graphics & Text | Print | Product List | Glossary On
Versions: 1 2 3 4 5 6 7 8 9 10 11 12 13 14 15 16 17 18 19 20 21 22 23 24 25 26 27
000
ASUS45 KSLC 271410
RWRUT

UTAH REGIONAL WEATHER ROUNDUP
NATIONAL WEATHER SERVICE SALT LAKE CITY UT
800 AM MDT TUE JUN 27 2017

UTZ001>011-023>025-271500-

NORTHERN UTAH

CITY           SKY/WX    TMP DP  RH WIND       PRES   REMARKS
BRIGHAM CITY   CLOUDY    69  48  47 S8        29.93F
HILL AFB       PTSUNNY   71  48  44 NE9       29.98R
LOGAN          CLOUDY    68  49  50 SE10      29.96F
OGDEN          CLOUDY    71  50  47 E7        29.97R
SALT LAKE CITY PTSUNNY   80  49  33 W7        29.94R
TOOELE VALLEY  MOSUNNY   72  46  40 CALM      29.96R
WENDOVER         N/A     78  27  15 CALM      29.96R
HEBER CITY     SUNNY     61  36  39 CALM      30.01R
WEST JORDAN    MOSUNNY   75  54  46 CALM      29.97R

$$

UTZ011>015-024>027-271500-

CENTRAL/NORTHEAST UTAH

CITY           SKY/WX    TMP DP  RH WIND       PRES   REMARKS
PROVO AIRPORT  SUNNY     68  37  32 E3        29.97R
MOAB/CANYONLAN SUNNY     82  28  14 S9        29.92S
DELTA          SUNNY     75  14   9 S12       29.98S
PRICE          SUNNY     68  29  23 N3        30.02S
VERNAL         SUNNY     67  38  34 CALM      29.99R

$$

UTZ013>016-019>022-027-271500-

SOUTHERN UTAH

CITY           SKY/WX    TMP DP  RH WIND       PRES   REMARKS
BRYCE CANYON   CLOUDY    51  26  37 CALM      30.23R
CEDAR CITY     SUNNY     65  25  22 N6        30.06S
MILFORD        SUNNY     70  18  13 S13       30.00S
ST GEORGE      SUNNY     77  20  12 NE5       29.91R
HANKSVILLE     SUNNY     68  18  14 CALM      29.96S
BLANDING       SUNNY     70  38  31 E5        30.21R

$$

REGIONAL REPORTS     COLORADO/ARIZONA

CITY           SKY/WX    TMP DP  RH WIND       PRES   REMARKS
CRAIG, CO      CLOUDY    59  39  47 CALM      30.06S
GRAND JUNCTION SUNNY     78  34  20 SE15      29.97S
RIFLE, CO      SUNNY     62  37  39 CALM      30.06S
MONTROSE, CO   SUNNY     74  37  26 E9        30.10R
CORTEZ, CO     SUNNY     68  44  42 E3        30.15S
COLORADO CITY    N/A     64  27  24 CALM      30.08R
PAGE, AZ       SUNNY     79  29  16 CALM      29.99R
GRAND CANYON   SUNNY     61  29  29 CALM      30.20S
KINGMAN, AZ    SUNNY     82  28  14 S8        29.95R
FLAGSTAFF, AZ  SUNNY     61  32  33 CALM      30.25S

$$

REGIONAL REPORTS    NEVADA/IDAHO/WYOMING

CITY           SKY/WX    TMP DP  RH WIND       PRES   REMARKS
LAS VEGAS, NV  SUNNY     84  25  11 S5        29.83R
ELY, NY        SUNNY     63  27  25 CALM      30.14R
ELKO, NV       SUNNY     61  33  35 SW5       30.08S
POCATELLO, ID  SUNNY     64  53  67 SW15G24   29.97R
BURLEY, ID     SUNNY     67  48  50 SW12      29.96R
FORT BRIDGER,    N/A     64  37  35 W16       30.11R
EVANSTON, WY   SUNNY     62  42  47 N10       30.13R
ROCK SPRINGS,  SUNNY     66  37  34 NW5       30.04R
KEMMERER, WY     N/A     55  39  54 NW14G20   30.13R

$$




USA.gov is the U.S. government's official web portal to all federal, state and local government web resources and services.